Total_Precipitation_Accumulation
0.12 0.21 0.24 0.24 0.22 0.18 0.15 0.12 0.22 0.26 0.37 0.45 0.48 0.61 0.78 0.92 0.92 0.88 0.72 0.63 0.69 0.70 0.76 0.79 0.79 0.86 0.81 0.79 0.84 0.98 1.16 1.28 1.42 1.43 1.41 1.40 1.46 1.51 1.53 1.62 1.62 1.68 1.73 1.75
0.16 0.19 0.24 0.27 0.25 0.19 0.13 0.12 0.16 0.24 0.38 0.50 0.57 0.67 0.74 0.71 0.65 0.59 0.54 0.45 0.43 0.59 0.68 0.64 0.63 0.66 0.61 0.66 0.79 0.94 1.04 1.15 1.35 1.48 1.51 1.51 1.55 1.63 1.68 1.68 1.68 1.71 1.67 1.72
0.25 0.24 0.25 0.34 0.33 0.24 0.15 0.14 0.20 0.32 0.49 0.65 0.55 0.55 0.62 0.63 0.61 0.57 0.54 0.39 0.34 0.41 0.55 0.55 0.56 0.56 0.66 0.79 0.91 1.02 1.16 1.30 1.49 1.59 1.68 1.69 1.65 1.74 1.71 1.71 1.75 1.72 1.66 1.64
0.31 0.42 0.51 0.37 0.30 0.29 0.29 0.26 0.28 0.40 0.42 0.56 0.56 0.61 0.73 0.73 0.71 0.55 0.49 0.39 0.35 0.36 0.41 0.48 0.54 0.61 0.75 1.01 1.22 1.25 1.39 1.58 1.69 1.80 1.77 1.75 1.74 1.75 1.82 1.89 1.91 1.88 1.82 1.73
0.47 0.60 0.52 0.44 0.32 0.36 0.41 0.54 0.55 0.64 0.61 0.56 0.56 0.66 0.75 0.65 0.57 0.57 0.47 0.43 0.42 0.41 0.48 0.57 0.61 0.65 0.86 1.08 1.30 1.43 1.49 1.62 1.79 1.89 1.93 1.96 1.98 1.92 1.96 2.04 1.99 1.93 1.89 1.92
0.59 0.74 0.73 0.61 0.48 0.47 0.58 1.02 0.86 0.79 0.81 0.69 0.64 0.76 0.83 0.79 0.72 0.66 0.58 0.54 0.53 0.54 0.63 0.77 0.86 0.90 1.03 1.15 1.27 1.44 1.53 1.65 1.82 2.03 2.09 2.14 2.27 2.33 2.25 2.20 2.08 2.10 2.10 2.09
0.74 0.80 0.87 0.74 0.68 0.71 1.11 1.38 1.07 0.90 0.86 0.83 0.92 0.93 0.89 0.80 0.80 0.74 0.63 0.64 0.62 0.64 0.75 0.94 1.09 1.15 1.24 1.36 1.47 1.48 1.56 1.69 1.88 2.04 2.13 2.19 2.34 2.43 2.41 2.38 2.36 2.29 2.22 2.24
0.89 1.07 1.24 0.87 0.83 1.24 1.49 1.25 1.24 1.20 1.11 1.00 0.98 0.94 0.89 0.80 0.77 0.72 0.70 0.74 0.74 0.79 0.93 1.15 1.32 1.28 1.32 1.38 1.42 1.45 1.47 1.58 1.70 1.86 1.91 2.00 2.23 2.33 2.40 2.44 2.40 2.30 2.24 2.11
1.18 1.30 1.20 1.01 1.09 1.26 1.39 1.55 1.46 1.33 1.31 1.14 1.11 1.02 0.92 0.83 0.79 0.76 0.72 0.78 0.81 0.87 1.07 1.32 1.46 1.47 1.52 1.40 1.45 1.48 1.52 1.63 1.76 1.84 1.91 2.03 2.12 2.13 2.20 2.27 2.24 2.15 2.14 2.06
1.35 1.40 1.32 1.18 1.06 0.99 1.12 1.23 1.22 1.21 1.20 1.14 1.12 1.06 0.97 0.85 0.78 0.77 0.77 0.73 0.77 0.86 0.94 1.03 1.22 1.39 1.47 1.50 1.55 1.56 1.59 1.63 1.69 1.81 1.84 1.87 1.98 2.07 2.16 2.27 2.35 2.26 2.17 2.06
1.60 1.51 1.39 1.40 1.29 1.16 1.23 1.30 1.21 1.15 1.12 1.12 1.10 1.04 0.91 0.86 0.83 0.81 0.78 0.73 0.76 0.85 0.86 0.90 0.98 1.09 1.17 1.26 1.37 1.42 1.47 1.52 1.56 1.58 1.67 1.74 1.79 1.86 1.88 1.97 1.98 1.98 1.93 1.90
1.91 1.67 1.51 1.48 1.37 1.26 1.30 1.28 1.34 1.41 1.37 1.16 1.05 1.13 1.05 0.92 0.81 0.79 0.79 0.77 0.81 0.83 0.82 0.84 0.88 1.03 1.14 1.22 1.35 1.46 1.54 1.56 1.48 1.45 1.50 1.54 1.56 1.56 1.55 1.49 1.49 1.45 1.45 1.45
1.55 1.39 1.35 1.34 1.31 1.24 1.25 1.18 1.17 1.24 1.27 1.17 1.10 1.07 1.13 1.03 0.94 0.87 0.81 0.76 0.80 0.85 0.83 0.84 0.86 0.96 1.04 1.12 1.23 1.33 1.41 1.45 1.42 1.40 1.46 1.45 1.46 1.48 1.51 1.45 1.35 1.27 1.25 1.22
1.35 1.29 1.29 1.24 1.20 1.18 1.19 1.14 1.02 1.01 1.08 1.10 1.11 1.14 1.22 1.15 1.05 1.00 0.95 0.87 0.80 0.79 0.77 0.79 0.85 0.88 0.96 1.03 1.11 1.17 1.22 1.27 1.34 1.42 1.47 1.52 1.55 1.58 1.65 1.72 1.65 1.48 1.32 1.22
1.42 1.31 1.20 1.06 1.05 1.10 1.07 1.02 0.95 0.90 1.03 1.15 1.11 1.12 1.16 1.04 0.98 0.95 0.90 0.86 0.83 0.81 0.83 0.85 0.89 0.91 0.96 1.06 1.13 1.14 1.14 1.16 1.18 1.25 1.32 1.38 1.39 1.43 1.51 1.60 1.63 1.54 1.38 1.25
1.48 1.35 1.16 1.01 1.04 1.13 1.12 1.08 0.99 0.88 0.85 0.96 1.04 1.00 1.02 0.94 0.86 0.87 0.89 0.90 0.96 0.97 0.98 0.97 1.01 0.97 1.01 1.09 1.14 1.17 1.12 1.12 1.11 1.10 1.10 1.11 1.13 1.19 1.27 1.36 1.41 1.34 1.25 1.13
1.49 1.41 1.25 1.08 1.02 1.03 1.04 1.04 0.99 0.89 0.79 0.81 0.91 0.96 0.97 0.91 0.84 0.83 0.86 0.89 0.94 0.96 0.97 1.02 1.07 1.06 1.12 1.17 1.17 1.17 1.10 1.07 1.04 1.01 0.99 0.99 1.02 1.07 1.11 1.15 1.18 1.13 1.04 0.91
1.35 1.26 1.14 1.06 0.98 0.95 0.97 0.91 0.88 0.90 0.86 0.83 0.85 0.89 0.89 0.94 0.97 0.95 0.90 0.90 0.90 0.87 0.83 0.83 0.90 0.97 1.07 1.19 1.21 1.18 1.05 0.95 0.89 0.87 0.91 0.95 0.97 1.02 1.07 1.06 1.03 0.96 0.89 0.75
1.19 1.15 1.06 1.02 1.00 0.97 0.93 0.87 0.85 0.87 0.83 0.78 0.83 0.89 0.91 0.96 1.05 1.01 0.94 0.95 1.01 1.04 0.92 0.81 0.87 0.85 0.91 1.08 1.20 1.20 1.06 0.94 0.86 0.81 0.81 0.83 0.86 0.92 0.96 0.93 0.85 0.78 0.71 0.67
1.20 1.23 1.21 1.18 1.11 1.07 0.98 0.88 0.84 0.86 0.83 0.79 0.80 0.84 0.90 0.93 1.02 1.06 1.04 0.95 0.95 1.04 1.03 0.94 0.84 0.76 0.77 0.90 1.11 1.08 1.03 0.96 0.87 0.77 0.77 0.82 0.85 0.88 0.89 0.86 0.79 0.73 0.68 0.65
1.23 1.30 1.28 1.22 1.16 1.05 0.93 0.85 0.86 0.86 0.83 0.85 0.88 0.88 0.92 0.93 0.93 1.05 1.14 1.02 0.87 0.94 1.00 0.96 0.82 0.73 0.70 0.82 1.00 1.03 0.99 0.94 0.84 0.73 0.69 0.72 0.75 0.80 0.84 0.84 0.78 0.70 0.68 0.68
1.36 1.43 1.31 1.15 1.08 0.98 0.86 0.81 0.78 0.76 0.76 0.84 0.91 0.94 1.07 1.11 1.06 1.04 1.01 0.97 0.94 1.01 0.99 0.90 0.80 0.70 0.64 0.69 0.78 0.90 0.88 0.82 0.75 0.67 0.60 0.60 0.65 0.73 0.74 0.74 0.71 0.67 0.67 0.68
1.34 1.30 1.20 1.02 0.98 0.85 0.71 0.69 0.68 0.66 0.68 0.78 0.93 1.07 1.27 1.28 1.21 1.25 1.11 0.88 0.87 0.97 0.93 0.87 0.81 0.70 0.61 0.58 0.65 0.73 0.75 0.76 0.72 0.63 0.53 0.53 0.57 0.61 0.64 0.60 0.60 0.61 0.57 0.53
1.15 1.04 0.94 0.83 0.85 0.81 0.76 0.73 0.71 0.71 0.74 0.79 0.85 1.00 1.26 1.42 1.25 1.02 0.97 0.93 0.90 0.87 0.82 0.82 0.77 0.67 0.62 0.57 0.58 0.65 0.71 0.74 0.70 0.63 0.55 0.55 0.55 0.55 0.58 0.56 0.54 0.51 0.45 0.45
1.12 0.95 0.81 0.78 0.88 0.98 0.95 0.89 0.87 0.87 0.91 0.92 0.86 0.90 1.05 1.30 1.33 1.02 0.81 0.73 0.77 0.76 0.74 0.78 0.79 0.75 0.64 0.56 0.56 0.64 0.72 0.75 0.75 0.70 0.65 0.65 0.61 0.61 0.61 0.57 0.54 0.52 0.51 0.51
1.08 0.97 0.86 0.80 0.85 1.00 1.07 1.08 1.14 1.16 1.23 1.29 1.20 1.07 1.09 1.16 1.09 0.95 0.80 0.68 0.67 0.71 0.67 0.70 0.75 0.77 0.67 0.58 0.60 0.66 0.71 0.76 0.77 0.73 0.72 0.70 0.65 0.63 0.63 0.60 0.59 0.57 0.54 0.51
1.10 1.01 0.94 0.89 0.88 0.98 1.11 1.24 1.35 1.41 1.52 1.67 1.65 1.35 1.22 1.22 1.13 1.01 0.88 0.77 0.76 0.75 0.71 0.68 0.66 0.67 0.69 0.68 0.65 0.64 0.69 0.76 0.75 0.75 0.74 0.68 0.63 0.62 0.60 0.55 0.52 0.51 0.47 0.43